COSMOS 1275 DEB, 12658

Orbit data source: Space-Track

COSMOS 1275 DEB, 12658 is space debris in LEO originally from a launch on Thu, 04 Jun 1981 UTC launched from the Plesetsk Missile And Space Complex (PKMTR). Debris objects in space refer to the collection of defunct objects orbiting the Earth. Examples of debris include non-operational satellites, rocket bodies, and fragments generated from explosions, collisions, or faulty payload assembly.

Loading next visibility...
Identifier
12658, 1981-053N
Orbit
LEO
Country
Flag of CISCIS
Related business
Manufacturer
Unknown
Mission
Spacecraft
Bus & Motor
Unknown
Mass
Unknown
Launch date (UTC)
1981-06-04 (45 years ago)
Launch vehicle
Unknown
Launch site
Plesetsk Missile And Space Complex (PKMTR)
Object type
Payload
Rocket body
Debris
Shape & HBR
Unknown shape, 0.2 m
Radar Cross Section
Medium (>0.1 m² and <1 m²)

Expand to show TLE details & history
Last TLE update: 1 day ago

TLE from 1 day ago
0 COSMOS 1275 DEB
1 12658U 81053N   26173.68370905  .00002965  00000-0  11289-2 0  9991
2 12658  82.9677 137.8344 0037689  61.7358 115.4318 14.30257175291028
Epoch: 2026-06-22T16:24Z
TLE epoch observation values (Epoch: 2026-06-22T16:24:32.461Z)
Latitude
2.32146°
Longitude
160.54804°
Altitude
805.266 km
Speed
7.445 km/s
True Right ascension
21h 10m 11s
True Declination
2° 18' 28"
Sunlit
Object was in full shadow at epoch
Visualization orbit readout
Latitude
Unknown
Longitude
Unknown
Altitude
Unknown
Speed
Unknown
Apparent Right ascension
Unknown
Apparent Declination
Unknown
Sunlit
N/A
Visualization observer readout
Local Sidereal Time
13:17:52
Azimuth
Unknown
Elevation
Unknown
Doppler factor
Unknown
Orbital elements
Apogee altitude
814.951 km
Perigee altitude
760.935 km
Semi-major axis
7,166.08 km
Eccentricity
0.00377
Inclination
82.9677°
RAAN
137.8344°
Arg. of periapsis
61.7358°
True anomaly
115.82104°
Mean anomaly
115.4318°
Eccentric anomaly
115.6265°
Mean motion
3.57784 °/min
Orbital period
100.62 mins
BSTAR
0.0011289
Loading maneuver chart data...
Computing Atmospheric mass density...

Documentation

Showing up to 5 results
|